Location: Atbuku
(36.4936°N, 30.4362°E)
Time: 10:34:28
(UTC+00:00)

Cosmos 1607 - Pass Details

Date: 15 March 2026
Orbit: 919 x 983 km, 65.0° (Epoch: 20 April)

Event Time Altitude Azimuth Distance (km) Brightness Sun altitude
Rises 18:03:06 0° 320° (NW) 3,653 7.9 -24.2°
Reaches altitude 10° 18:05:51 10° 312° (NW) 2,711 7.2 -24.7°
Maximum altitude 18:11:31 35° 249° (WSW) 1,517 5.4 -25.8°
Drops below altitude 10° 18:17:13 10° 186° (S) 2,722 6.2 -26.9°
Enters shadow 18:17:18 10° 185° (S) 2,751 6.2 -26.9°
